This is the latest recevied weather packets stored in our database for station/object WX1N. If no packets are shown the sender has not sent any weather packets the latest 10 day(s).
| Time | Temp. | Humidity | Pressure | Rain* | Wind** | Luminosity | Snow |
|---|---|---|---|---|---|---|---|
| 1777859104 | 1.11° C | 84% | 1008.3 hPa | 0 mm | - | - | - |
| 1777858803 | 1.67° C | 84% | 1008.3 hPa | 0 mm | - | - | - |
| 1777858503 | 1.67° C | 84% | 1008.2 hPa | 0 mm | - | - | - |
| 1777858203 | 1.67° C | 83% | 1008.2 hPa | 0 mm | - | - | - |
| 1777857903 | 2.22° C | 82% | 1008 hPa | 0 mm | - | - | - |
| 1777857604 | 2.22° C | 80% | 1008 hPa | 0 mm | - | - | - |
| 1777857303 | 2.22° C | 79% | 1007.8 hPa | 0 mm | - | - | - |
| 1777857004 | 2.22° C | 79% | 1007.8 hPa | 0 mm | - | - | - |
| 1777856703 | 2.78° C | 77% | 1007.7 hPa | 0 mm | - | - | - |
| 1777856403 | 2.78° C | 77% | 1007.7 hPa | 0 mm | - | - | - |
| 1777856103 | 3.33° C | 78% | 1007.6 hPa | 0 mm | - | - | - |
| 1777855803 | 3.33° C | 77% | 1007.5 hPa | 0 mm | - | - | - |
| 1777855504 | 3.33° C | 77% | 1007.5 hPa | 0 mm | - | - | - |
| 1777855203 | 3.89° C | 73% | 1007.4 hPa | 0 mm | - | - | - |
| 1777854904 | 3.89° C | 71% | 1007.4 hPa | 0 mm | - | - | - |
| 1777854603 | 4.44° C | 70% | 1007.3 hPa | 0 mm | - | - | - |
| 1777854303 | 4.44° C | 69% | 1007.3 hPa | 0 mm | - | - | - |
| 1777854003 | 5° C | 67% | 1007.2 hPa | 0 mm | - | - | - |
| 1777853704 | 5° C | 67% | 1007.1 hPa | 0 mm | - | - | - |
| 1777853404 | 5.56° C | 67% | 1007.1 hPa | 0 mm | - | - | - |
| 1777853103 | 5.56° C | 64% | 1007.1 hPa | 0 mm | - | - | - |
| 1777852804 | 6.11° C | 65% | 1007 hPa | 0 mm | - | - | - |
| 1777852503 | 6.67° C | 58% | 1006.9 hPa | 0 mm | - | - | - |
| 1777852204 | 7.22° C | 59% | 1006.9 hPa | 0 mm | - | - | - |
| 1777851904 | 7.78° C | 55% | 1006.9 hPa | 0 mm | - | - | - |
* Rain latest hour (hover to see other rain measurements)
** Current wind speed in m/s (hover to see current wind gust speed)